| time (UTC) | temp F | wind direction | speed MPH | gust MPH | rain 1hr in | rain 24hr in | rain mn in | humidity % | barometer mb |
| 20260504181551 | 74 | 0 | 0.0 | 0.0 | 0.00 | 0.00 | 0.00 | 31 | 1010.1 |
| 20260504180131 | 74 | 0 | 0.0 | 0.0 | 0.00 | 0.00 | 0.00 | 32 | 1010.1 |
| 20260504174552 | 73 | 0 | 0.0 | 0.0 | 0.00 | 0.00 | 0.00 | 33 | 1010.1 |
| 20260504173049 | 72 | 0 | 0.0 | 0.0 | 0.00 | 0.00 | 0.00 | 35 | 1010.0 |
| 20260504171552 | 71 | 0 | 0.0 | 0.0 | 0.00 | 0.00 | 0.00 | 35 | 1009.9 |
| 20260504120108 | 72 | 0 | 0.0 | 0.0 | 0.00 | 0.00 | 0.00 | 32 | 1006.7 |
| 20260504081551 | 80 | 0 | 0.0 | 0.0 | 0.00 | 0.00 | 0.00 | 20 | 1005.7 |
| 20260504044554 | 87 | 0 | 0.0 | 0.0 | 0.00 | 0.00 | 0.00 | 17 | 1003.4 |
| 20260504043101 | 87 | 0 | 0.0 | 0.0 | 0.00 | 0.00 | 0.00 | 16 | 1003.5 |
| 20260504041549 | 88 | 0 | 0.0 | 0.0 | 0.00 | 0.00 | 0.00 | 15 | 1003.3 |
| 20260504034555 | 89 | 0 | 0.0 | 0.0 | 0.00 | 0.00 | 0.00 | 15 | 1003.1 |
| 20260504033056 | 89 | 0 | 0.0 | 0.0 | 0.00 | 0.00 | 0.00 | 15 | 1002.9 |
| 20260504031549 | 89 | 0 | 0.0 | 0.0 | 0.00 | 0.00 | 0.00 | 15 | 1002.6 |
| 20260504030052 | 90 | 0 | 0.0 | 0.0 | 0.00 | 0.00 | 0.00 | 15 | 1002.4 |
| 20260504024550 | 90 | 0 | 0.0 | 0.0 | 0.00 | 0.00 | 0.00 | 15 | 1002.2 |
| 20260504023051 | 91 | 0 | 0.0 | 1.0 | 0.00 | 0.00 | 0.00 | 16 | 1002.1 |
| 20260504021557 | 91 | 0 | 0.0 | 0.0 | 0.00 | 0.00 | 0.00 | 16 | 1002.1 |
| 20260504014557 | 91 | 0 | 0.0 | 0.0 | 0.00 | 0.00 | 0.00 | 15 | 1002.0 |
| 20260504013053 | 92 | 0 | 0.0 | 0.0 | 0.00 | 0.00 | 0.00 | 14 | 1002.0 |
| 20260504011552 | 92 | 0 | 0.0 | 0.0 | 0.00 | 0.00 | 0.00 | 14 | 1002.0 |
| 20260504010052 | 92 | 0 | 0.0 | 0.0 | 0.00 | 0.00 | 0.00 | 13 | 1002.0 |
| 20260504004554 | 93 | 0 | 0.0 | 0.0 | 0.00 | 0.00 | 0.00 | 13 | 1002.1 |
| 20260504003051 | 93 | 0 | 0.0 | 0.0 | 0.00 | 0.00 | 0.00 | 12 | 1002.3 |
| 20260504001553 | 93 | 0 | 0.0 | 0.0 | 0.00 | 0.00 | 0.00 | 11 | 1002.5 |
| 20260504000054 | 93 | 0 | 0.0 | 0.0 | 0.00 | 0.00 | 0.00 | 11 | 1002.4 |
| 20260503234554 | 94 | 0 | 0.0 | 0.0 | 0.00 | 0.00 | 0.00 | 10 | 1002.6 |
| 20260503233050 | 94 | 0 | 0.0 | 1.0 | 0.00 | 0.00 | 0.00 | 11 | 1002.4 |
| 20260503231553 | 94 | 0 | 0.0 | 1.0 | 0.00 | 0.00 | 0.00 | 11 | 1002.6 |
| 20260503230105 | 94 | 0 | 0.0 | 0.0 | 0.00 | 0.00 | 0.00 | 10 | 1002.4 |
| 20260503224555 | 94 | 0 | 0.0 | 1.0 | 0.00 | 0.00 | 0.00 | 9 | 1002.6 |
| 20260503223052 | 94 | 0 | 0.0 | 0.0 | 0.00 | 0.00 | 0.00 | 9 | 1002.8 |
| 20260503221601 | 94 | 0 | 0.0 | 0.0 | 0.00 | 0.00 | 0.00 | 10 | 1003.2 |
| 20260503220053 | 94 | 0 | 0.0 | 0.0 | 0.00 | 0.00 | 0.00 | 10 | 1003.3 |
| 20260503214550 | 94 | 0 | 0.0 | 1.0 | 0.00 | 0.00 | 0.00 | 10 | 1003.6 |
| 20260503213100 | 94 | 0 | 0.0 | 1.0 | 0.00 | 0.00 | 0.00 | 11 | 1003.9 |
| 20260503211609 | 94 | 0 | 0.0 | 0.0 | 0.00 | 0.00 | 0.00 | 11 | 1004.0 |
| 20260503210052 | 94 | 0 | 0.0 | 1.0 | 0.00 | 0.00 | 0.00 | 11 | 1004.4 |
| 20260503204552 | 94 | 0 | 0.0 | 0.0 | 0.00 | 0.00 | 0.00 | 11 | 1004.5 |
| 20260503203052 | 94 | 0 | 0.0 | 0.0 | 0.00 | 0.00 | 0.00 | 11 | 1004.6 |
| 20260503201554 | 94 | 0 | 0.0 | 1.0 | 0.00 | 0.00 | 0.00 | 10 | 1004.7 |
| 20260503200101 | 93 | 0 | 0.0 | 1.0 | 0.00 | 0.00 | 0.00 | 14 | 1004.9 |
| 20260503194601 | 93 | 0 | 0.0 | 0.0 | 0.00 | 0.00 | 0.00 | 14 | 1005.3 |
| 20260503193102 | 93 | 0 | 0.0 | 0.0 | 0.00 | 0.00 | 0.00 | 14 | 1005.6 |
| 20260503191559 | 93 | 0 | 0.0 | 0.0 | 0.00 | 0.00 | 0.00 | 14 | 1006.1 |
| 20260503190050 | 93 | 0 | 0.0 | 1.0 | 0.00 | 0.00 | 0.00 | 14 | 1006.2 |
| 20260503184559 | 93 | 0 | 0.0 | 0.0 | 0.00 | 0.00 | 0.00 | 15 | 1006.4 |
| 20260503183052 | 92 | 0 | 0.0 | 0.0 | 0.00 | 0.00 | 0.00 | 14 | 1006.8 |